Regional Weather Roundup
Issued by NWS Jackson, KY

Home | Current Version | Previous Version | Graphics & Text | Print | Product List | Glossary On
Versions: 1 2 3 4 5 6 7 8 9 10 11 12 13 14 15 16 17 18 19 20 21 22 23 24 25 26 27
000
ASUS43 KJKL 300710
RWRJKL

EAST KENTUCKY HOURLY WEATHER ROUNDUP
NATIONAL WEATHER SERVICE JACKSON KY
300 AM EDT MON MAY 30 2016

NOTE: "FAIR" INDICATES FEW OR NO CLOUDS BELOW 12,000 FEET WITH
NO SIGNIFICANT WEATHER AND/OR OBSTRUCTIONS TO VISIBILITY.

* THESE REPORTS ARE NOT UNDER NWS QUALITY CONTROL AND MAY NOT
  REPORT WEATHER SUCH AS PRECIPITATION AND FOG.

KYZ079-080-083-085-087-088-110-112-115-119-120-300800
...EASTERN KENTUCKY...

CITY           SKY/WX    TMP DP  RH WIND       PRES   REMARKS
JACKSON        MOCLDY    69  64  84 NW6       30.06S
LONDON         MOCLDY    66  62  87 CALM      30.05S
SOMERSET*      CLOUDY    63  63 100 CALM      30.06R
MONTICELLO*    PTCLDY    66  65  96 NE8       30.06S
WILLIAMSBURG*  MOSUNNY   61  61 100 CALM      30.06R
MIDDLESBORO*   CLOUDY    60  60 100 CALM      30.07F FOG
HARLAN APT*    CLOUDY    63  63 100 CALM      30.07F VSB 1/2
HAZARD APT*    SUNNY     64  64 100 CALM      30.05S FOG
BLACK MTN*       N/A     63  59  88 CALM        N/A
PIKE CO APT*     N/A     65  65 100 SE3       30.06S FOG
MOREHEAD APT*  HVY RAIN  66  63  88 NE8       30.07F
ASHLAND*       CLOUDY    66  63  88 S3        30.02F
$$

KYZ035-036-041-042-044-050-067-078-099-300800
...CENTRAL KENTUCKY...

CITY           SKY/WX    TMP DP  RH WIND       PRES   REMARKS
MT STERLING*   CLOUDY    68  66  94 SE6       30.07S
FLEMING/MASON* CLOUDY    65  64  97 E9        30.05F
DANVILLE*      MOCLDY    64  63  94 NW3       30.06R
RICHMOND*      MOCLDY    68  64  88 CALM      30.05R
LEXINGTON      CLOUDY    70  64  81 CALM      30.04R
FRANKFORT      CLOUDY    65  61  87 CALM      30.02S
LOUISVILLE     CLOUDY    71  61  70 SW3       30.03R
LEBANON*         N/A     68  61  77 S3        30.05R
GLASGOW*       CLOUDY    66  66 100 CALM      30.05R
BOWLING GREEN  CLOUDY    70  63  78 CALM      30.05R
$$

KYZ091>093-OHZ055-061-077-WVZ005-015-034-035-042-300800
...SOUTHERN OHIO/WEST VIRGINIA...

CITY           SKY/WX    TMP DP  RH WIND       PRES   REMARKS
COVINGTON      MOCLDY    69  65  86 CALM      30.03S
COLUMBUS       MOCLDY    66  62  87 CALM      30.00F
DAYTON         PTCLDY    65  62  90 N5        30.03S
WILMINGTON     PTCLDY    65  63  93 SW7       30.03S
HUNTINGTON     MOCLDY    67  61  81 NW3       30.04F
CHARLESTON       N/A     63  62  97 CALM      30.03S
PINEVILLE*       N/A     58  56  91 MISG      30.13F
BECKLEY          N/A     60  56  86 SE5       30.10F
BLUEFIELD      MOCLDY    58  55  90 CALM      30.12F
LOGAN CO APT*    N/A     64  63  94 CALM      30.06S
$$

VAZ002-007-008-TNZ017-027-036-066-071-300800
...SOUTHWEST VIRGINIA/EAST TENNESSEE...

CITY           SKY/WX    TMP DP  RH WIND       PRES   REMARKS
WISE*            N/A     61  61 100 CALM      30.12F FOG
JONESVILLE*    FOG       64  64 100 CALM      30.09S VSB<1/4
ABINGDON*        N/A     63  60  89 E3        30.09F
BRISTOL        CLEAR     59  56  89 CALM      30.08S
SEVIERVILLE*   SUNNY     63  61  94 CALM      30.03F
KNOXVILLE      CLEAR     65  63  93 NE5       30.02F
OAK RIDGE      CLEAR     66  64  93 CALM      30.05S
CROSSVILLE     CLEAR     64  60  87 CALM      30.09S
NASHVILLE      MOCLDY    74  66  76 CALM      30.04S
$$

...KEY TO REMARKS...
VSB - VISIBILITY IN MILES
WCI - WIND CHILL INDEX
HX  - HEAT INDEX

$$




USA.gov is the U.S. government's official web portal to all federal, state and local government web resources and services.